Location: �bnet
(46.9957°N, 8.4908°E)
Time: 01:11:56
(UTC+00:00)

Terra - Pass Details

Date: 11 May 2021
Orbit: 701 x 703 km, 98.2° (Epoch: 23 June)

Event Time Altitude Azimuth Distance (km) Brightness Sun altitude
Exits shadow 21:32:46 39° 190° (S) 1,055 2.3 -20.4°
Maximum altitude 21:34:26 66° 258° (WSW) 771 2.0 -20.5°
Drops below altitude 10° 21:39:12 10° 341° (NNW) 2,182 5.5 -20.9°
Sets 21:41:29 0° 344° (NNW) 3,105 6.6 -21.0°
